Weather History for Covington, KY

Change the Weather History Date:

Wednesday, September 18, 2013

  Actual Average Record
Temperature  
Mean Temperature 68 °F 67 °F  
Max Temperature 77 °F 77 °F 95 °F (1953)
Min Temperature 59 °F 56 °F 40 °F (1937)
Degree Days  
Heating Degree Days 0 2  
Month to date heating degree days 10 15  
Since 1 July heating degree days 14 15  
Cooling Degree Days 3 4  
Month to date cooling degree days 118 106  
Year to date cooling degree days 1094 1074  
Growing Degree Days 18 (Base 50)    
Moisture  
Dew Point 61 °F    
Average Humidity 82    
Maximum Humidity 100    
Minimum Humidity 64    
Precipitation  
Precipitation 0.01 in 0.08 in 0.66 in (1952)
Month to date precipitation 0.17 1.57  
Year to date precipitation 33.22 31.36  
Snow  
Snow 0.00 in 0.00 in - ()
Month to date snowfall 0.0 0.0  
Since 1 July snowfall 0.0 0.0  
Since 1 September snowfall 0.0 0.0  
Snow Depth 0.00 in    
Sea Level Pressure  
Sea Level Pressure 30.11 in    
Wind  
Wind Speed 5 mph (South)    
Max Wind Speed 10 mph    
Max Gust Speed 13 mph    
Visibility 9 miles    
Events Rain    
T = Trace of Precipitation, MM = Missing Value Source: NWS Daily Summary

Daily Weather History Graph

Daily Weather History Graph

Search for Another Location

Airport:

Trip Planner

Search our weather history database for the weather conditions in past years. The results will help you decide how hot, cold, wet, or windy it might be!

Date:

Astronomy

Sep. 18, 2013 Rise Set
Actual Time 7:22 AM EDT 7:41 PM EDT
Civil Twilight 6:56 AM EDT 8:08 PM EDT
Nautical Twilight 6:24 AM EDT 8:39 PM EDT
Astronomical Twilight 5:52 AM EDT 9:11 PM EDT
Moon 7:04 PM EDT (9/18) 6:24 AM EDT (9/18)
Length of Visible Light 13h 12m
Length of Day
12h 18m
Waxing Gibbous, 99% of the Moon is Illuminated
Sep 18
Waxing Gibbous
Sep 19
Full
Sep 26
Last Quarter
Oct 4
New
Oct 11
First Quarter

Hourly Weather History & Observations

Time (EDT) Temp. Dew Point Humidity Pressure Visibility Wind Dir Wind Speed Gust Speed Precip Events Conditions
12:52 AM 62.1 °F 53.1 °F 72% 30.14 in 10.0 mi East 6.9 mph - N/A   Mostly Cloudy
1:52 AM 62.1 °F 53.1 °F 72% 30.14 in 10.0 mi East 4.6 mph - N/A   Mostly Cloudy
2:52 AM 62.1 °F 53.1 °F 72% 30.13 in 10.0 mi Calm Calm - N/A   Mostly Cloudy
3:52 AM 62.1 °F 54.0 °F 75% 30.12 in 10.0 mi ESE 4.6 mph - N/A   Overcast
4:52 AM 61.0 °F 55.0 °F 81% 30.11 in 10.0 mi SE 5.8 mph - N/A   Overcast
5:52 AM 61.0 °F 55.9 °F 83% 30.12 in 10.0 mi ESE 3.5 mph - N/A   Overcast
6:52 AM 61.0 °F 55.9 °F 83% 30.13 in 10.0 mi ESE 3.5 mph - 0.00 in Rain Light Rain
7:52 AM 59.0 °F 57.9 °F 96% 30.14 in 7.0 mi Calm Calm - 0.01 in Rain Light Rain
8:52 AM 62.1 °F 59.0 °F 90% 30.15 in 9.0 mi Calm Calm - 0.00 in   Overcast
9:52 AM 63.0 °F 60.1 °F 90% 30.15 in 9.0 mi Calm Calm - 0.00 in Rain Light Rain
10:52 AM 64.0 °F 60.1 °F 87% 30.16 in 10.0 mi SSW 4.6 mph - 0.00 in   Mostly Cloudy
11:52 AM 73.0 °F 63.0 °F 71% 30.14 in 10.0 mi NW 3.5 mph - N/A   Mostly Cloudy
12:52 PM 77.0 °F 64.0 °F 64% 30.13 in 10.0 mi Calm Calm - N/A   Scattered Clouds
1:52 PM 75.9 °F 64.0 °F 67% 30.12 in 10.0 mi South 4.6 mph - N/A   Overcast
2:52 PM 75.0 °F 64.0 °F 69% 30.10 in 10.0 mi SSW 5.8 mph - N/A   Overcast
3:52 PM 73.9 °F 66.0 °F 76% 30.08 in 10.0 mi SSW 5.8 mph - N/A   Mostly Cloudy
4:52 PM 75.0 °F 64.0 °F 69% 30.07 in 10.0 mi SSW 9.2 mph - N/A   Scattered Clouds
5:52 PM 75.0 °F 64.9 °F 71% 30.07 in 10.0 mi SSW 8.1 mph - N/A   Scattered Clouds
6:52 PM 73.0 °F 64.9 °F 76% 30.07 in 10.0 mi South 8.1 mph - N/A   Mostly Cloudy
7:52 PM 71.1 °F 66.0 °F 84% 30.07 in 8.0 mi SSW 6.9 mph - N/A   Scattered Clouds
8:52 PM 69.1 °F 66.9 °F 93% 30.08 in 6.0 mi South 6.9 mph - N/A   Partly Cloudy
9:52 PM 68.0 °F 66.9 °F 96% 30.09 in 5.0 mi South 6.9 mph - N/A   Clear
10:52 PM 68.0 °F 66.9 °F 96% 30.09 in 4.0 mi South 6.9 mph - N/A   Clear
11:52 PM 66.9 °F 66.0 °F 97% 30.08 in 4.0 mi SSW 6.9 mph - N/A   Partly Cloudy